Location: Churchill Northern Studies Centre
(58.7378°N, 93.8201°W)
Time: 02:37:13
(UTC-05:00)

Envisat - Pass Details

Date: 07 October 2017
Orbit: 764 x 766 km, 98.2° (Epoch: 17 October)

Event Time Altitude Azimuth Distance (km) Brightness Sun altitude
Exits shadow 20:18:24 - 152° (SSE) 2,370 5.2 -14.8°
Reaches altitude 10° 20:18:34 10° 152° (SSE) 2,303 5.1 -14.8°
Maximum altitude 20:23:37 73° 69° (ENE) 808 2.9 -15.4°
Drops below altitude 10° 20:28:42 10° 346° (NNW) 2,318 5.9 -16.1°
Sets 20:31:02 0° 344° (NNW) 3,248 6.7 -16.3°
